Weather History for Laurinburg-Maxton, NC

Change the Weather History Date:

Tuesday, July 29, 2014

  Actual Average (KLBT) Record (KLBT)
Temperature  
Mean Temperature 75 °F 81 °F  
Max Temperature 87 °F 90 °F 97 °F (2011)
Min Temperature 64 °F 72 °F 68 °F (2014)
Degree Days  
Heating Degree Days 0 0  
Month to date heating degree days 0  
Since 1 June heating degree days 0  
Since 1 July heating degree days 0  
Cooling Degree Days 10 16  
Month to date cooling degree days 464  
Year to date cooling degree days 1102  
Since 1 June cooling degree days 852  
Growing Degree Days 25 (Base 50)    
Moisture  
Dew Point 59 °F    
Average Humidity 60    
Maximum Humidity 87    
Minimum Humidity 36    
Precipitation  
Precipitation 0.00 in 0.19 in 1.90 in (2005)
Month to date precipitation 5.08  
Year to date precipitation 24.49  
Sea Level Pressure  
Sea Level Pressure 29.92 in    
Wind  
Wind Speed 5 mph (NNW)    
Max Wind Speed 13 mph    
Max Gust Speed 16 mph    
Visibility 10 miles    
Events      
T = Trace of Precipitation, MM = Missing Value Source: NWS Daily Summary

Daily Weather History Graph

Daily Weather History Graph

Search for Another Location

Airport:

Trip Planner

Search our weather history database for the weather conditions in past years. The results will help you decide how hot, cold, wet, or windy it might be!

Date:

Astronomy

Jul. 29, 2014 Rise Set
Actual Time 6:25 AM EDT 8:22 PM EDT
Civil Twilight 5:57 AM EDT 8:50 PM EDT
Nautical Twilight 5:23 AM EDT 9:24 PM EDT
Astronomical Twilight 4:46 AM EDT 10:00 PM EDT
Moon 8:51 AM EDT (7/29) 9:43 PM EDT (7/29)
Length of Visible Light 14h 53m
Length of Day
13h 57m
Waxing Crescent, 7% of the Moon is Illuminated
Jul 29
Waxing Crescent
Aug 3
First Quarter
Aug 10
Full
Aug 17
Last Quarter
Aug 25
New

Hourly Weather History & Observations

Time (EDT) Temp. Heat Index Dew Point Humidity Pressure Visibility Wind Dir Wind Speed Gust Speed Precip Events Conditions
12:52 AM 73.9 °F - 59.0 °F 59% 29.86 in 10.0 mi North 5.8 mph - N/A   Partly Cloudy
1:52 AM 72.0 °F - 59.0 °F 64% 29.86 in 10.0 mi North 5.8 mph - N/A   Scattered Clouds
2:52 AM 71.1 °F - 59.0 °F 66% 29.86 in 10.0 mi North 4.6 mph - N/A   Clear
3:52 AM 66.9 °F - 60.1 °F 79% 29.87 in 10.0 mi Calm Calm - N/A   Scattered Clouds
4:52 AM 66.0 °F - 61.0 °F 84% 29.89 in 10.0 mi Calm Calm - N/A   Mostly Cloudy
5:52 AM 64.0 °F - 60.1 °F 87% 29.91 in 10.0 mi Calm Calm - N/A   Mostly Cloudy
6:52 AM 66.0 °F - 59.0 °F 78% 29.93 in 10.0 mi NNE 4.6 mph - N/A   Overcast
7:52 AM 69.1 °F - 59.0 °F 70% 29.94 in 10.0 mi North 5.8 mph - N/A   Mostly Cloudy
8:52 AM 72.0 °F - 57.9 °F 61% 29.94 in 10.0 mi NNE 10.4 mph - N/A   Mostly Cloudy
10:52 AM 78.1 °F - 59.0 °F 52% 29.95 in 10.0 mi ENE 6.9 mph - N/A   Partly Cloudy
11:52 AM 79.0 °F - 57.0 °F 47% 29.95 in 10.0 mi Variable 5.8 mph - N/A   Clear
12:52 PM 81.0 °F 81.3 °F 59.0 °F 47% 29.94 in 10.0 mi ENE 4.6 mph - N/A   Partly Cloudy
1:52 PM 82.9 °F 82.4 °F 57.0 °F 41% 29.93 in 10.0 mi WSW 4.6 mph - N/A   Clear
2:52 PM 84.9 °F 83.6 °F 55.0 °F 36% 29.92 in 10.0 mi West 9.2 mph - N/A   Clear
3:52 PM 84.9 °F 83.9 °F 57.0 °F 38% 29.91 in 10.0 mi NW 5.8 mph - N/A   Scattered Clouds
4:52 PM 86.0 °F 84.9 °F 57.0 °F 37% 29.91 in 10.0 mi West 12.7 mph 16.1 mph N/A   Mostly Cloudy
5:52 PM 84.9 °F 83.7 °F 55.9 °F 37% 29.92 in 10.0 mi WNW 10.4 mph - N/A   Clear
6:52 PM 84.0 °F 82.9 °F 55.0 °F 37% 29.92 in 10.0 mi NW 6.9 mph - N/A   Clear
7:52 PM 80.1 °F 80.2 °F 55.9 °F 43% 29.93 in 10.0 mi NW 4.6 mph - N/A   Clear
8:52 PM 72.0 °F - 63.0 °F 73% 29.95 in 10.0 mi Calm Calm - N/A   Clear
9:52 PM 71.1 °F - 61.0 °F 70% 29.97 in 10.0 mi Calm Calm - N/A   Clear
10:52 PM 66.9 °F - 60.1 °F 79% 29.99 in 10.0 mi North 3.5 mph - N/A   Clear
11:52 PM 66.9 °F - 62.1 °F 84% 29.99 in 10.0 mi Calm Calm - N/A   Clear